TimeCDT,TemperatureF,Dew PointF,Humidity,Sea Level PressureIn,VisibilityMPH,Wind Direction,Wind SpeedMPH,Gust SpeedMPH,PrecipitationIn,Events,Conditions,WindDirDegrees,DateUTC
12:52 AM,72.0,64.9,78,30.13,10.0,SSW,6.9,-,N/A,,Clear,200,2013-08-26 05:52:00
1:52 AM,72.0,64.0,76,30.12,10.0,SSW,6.9,-,N/A,,Clear,200,2013-08-26 06:52:00
2:52 AM,71.1,63.0,75,30.13,10.0,SW,3.5,-,N/A,,Clear,220,2013-08-26 07:52:00
3:52 AM,69.1,62.1,78,30.13,10.0,Calm,Calm,-,N/A,,Clear,0,2013-08-26 08:52:00
4:52 AM,69.1,63.0,81,30.12,10.0,Calm,Calm,-,N/A,,Clear,0,2013-08-26 09:52:00
5:52 AM,66.9,62.1,84,30.13,10.0,Calm,Calm,-,N/A,,Clear,0,2013-08-26 10:52:00
6:52 AM,69.1,63.0,81,30.13,9.0,Calm,Calm,-,N/A,,Clear,0,2013-08-26 11:52:00
7:52 AM,73.0,64.9,76,30.14,9.0,SW,3.5,-,N/A,,Clear,230,2013-08-26 12:52:00
8:52 AM,78.1,66.9,68,30.14,9.0,WSW,8.1,-,N/A,,Clear,250,2013-08-26 13:52:00
9:52 AM,82.0,69.1,65,30.13,9.0,WSW,8.1,-,N/A,,Clear,250,2013-08-26 14:52:00
10:52 AM,84.9,69.1,59,30.13,10.0,WSW,8.1,-,N/A,,Clear,240,2013-08-26 15:52:00
11:52 AM,88.0,71.1,57,30.11,10.0,WSW,5.8,-,N/A,,Clear,240,2013-08-26 16:52:00
12:52 PM,90.0,71.1,54,30.09,10.0,WSW,8.1,-,N/A,,Clear,250,2013-08-26 17:52:00
1:52 PM,91.0,71.1,52,30.07,10.0,SW,9.2,-,N/A,,Clear,230,2013-08-26 18:52:00
2:52 PM,91.0,70.0,50,30.05,10.0,WSW,8.1,-,N/A,,Clear,240,2013-08-26 19:52:00
3:52 PM,90.0,70.0,52,30.04,10.0,SSW,6.9,-,N/A,,Clear,200,2013-08-26 20:52:00
4:52 PM,91.0,68.0,47,30.02,10.0,SSW,8.1,-,N/A,,Clear,200,2013-08-26 21:52:00
5:52 PM,90.0,71.1,54,30.01,10.0,SSW,5.8,-,N/A,,Clear,200,2013-08-26 22:52:00
6:52 PM,87.1,72.0,61,29.99,10.0,South,5.8,-,N/A,,Clear,190,2013-08-26 23:52:00
7:52 PM,84.0,72.0,67,29.98,10.0,South,6.9,-,N/A,,Clear,190,2013-08-27 00:52:00
8:52 PM,82.0,71.1,69,29.99,10.0,SSW,6.9,-,N/A,,Clear,200,2013-08-27 01:52:00
9:52 PM,81.0,71.1,72,29.98,10.0,South,6.9,-,N/A,,Clear,190,2013-08-27 02:52:00
10:52 PM,79.0,70.0,74,29.99,10.0,South,6.9,-,N/A,,Clear,190,2013-08-27 03:52:00
11:52 PM,78.1,69.1,74,29.98,10.0,SSW,4.6,-,N/A,,Clear,210,2013-08-27 04:52:00